• In Austria
  • List of Countries
  • For 7 days
  • Water Temperature
  • Satellite Maps
  • Weather Map
  • News
  • Weather Widgets
  • user-avatar
    Login

    Hourly Weather Wieruchow

    Today, 19 April, Thursday

    Time Temperature Precipitation Wind Pressure Humidity
    00:00 +11°C° 0 mm 3 mps 762 mmHg 77%
    01:00 +11°C° 0 mm 3 mps 762 mmHg 79%
    02:00 +10°C° 0 mm 3 mps 762 mmHg 83%
    03:00 +10°C° 0 mm 3 mps 762 mmHg 88%
    04:00 +9°C° 0 mm 3 mps 762 mmHg 92%
    05:00 +10°C° 0 mm 3 mps 762 mmHg 88%
    06:00 +11°C° 0 mm 4 mps 762 mmHg 85%
    07:00 +12°C° 0 mm 4 mps 762 mmHg 81%
    08:00 +14°C° 0 mm 5 mps 761 mmHg 73%
    09:00 +15°C° 0 mm 5 mps 761 mmHg 66%
    10:00 +17°C° 0 mm 6 mps 761 mmHg 58%
    11:00 +19°C° 0 mm 6 mps 761 mmHg 55%
    12:00 +18°C° 0 mm 7 mps 761 mmHg 51%
    13:00 +20°C° 0 mm 7 mps 761 mmHg 48%
    14:00 +20°C° 0 mm 7 mps 761 mmHg 49%
    15:00 +18°C° 0 mm 7 mps 761 mmHg 49%
    16:00 +18°C° 0 mm 7 mps 761 mmHg 50%
    17:00 +16°C° 0 mm 6 mps 761 mmHg 55%
    18:00 +15°C° 0 mm 5 mps 761 mmHg 60%
    19:00 +13°C° 0 mm 4 mps 761 mmHg 65%
    20:00 +12°C° 0 mm 4 mps 761 mmHg 68%
    21:00 +11°C° 0 mm 4 mps 762 mmHg 70%
    22:00 +10°C° 0 mm 3 mps 762 mmHg 73%
    23:00 +9°C° 0 mm 3 mps 762 mmHg 76%

    Tomorrow, 20 April, Friday

    Time Temperature Precipitation Wind Pressure Humidity
    00:00 +8°C° 0 mm 3 mps 762 mmHg 78%
    01:00 +7°C° 0 mm 2 mps 762 mmHg 80%
    02:00 +7°C° 0 mm 2 mps 762 mmHg 81%
    03:00 +6°C° 0 mm 2 mps 762 mmHg 82%
    04:00 +7°C° 0 mm 1 mps 762 mmHg 84%
    05:00 +8°C° 0 mm 1 mps 762 mmHg 79%
    06:00 +9°C° 0 mm 1 mps 762 mmHg 73%
    07:00 +11°C° 0 mm 1 mps 762 mmHg 68%
    08:00 +13°C° 0 mm 1 mps 762 mmHg 61%
    09:00 +15°C° 0 mm 1 mps 762 mmHg 54%
    10:00 +16°C° 0 mm 1 mps 762 mmHg 47%
    11:00 +19°C° 0 mm 1 mps 761 mmHg 44%
    12:00 +20°C° 0 mm 1 mps 761 mmHg 41%
    13:00 +21°C° 0 mm 1 mps 761 mmHg 37%
    14:00 +21°C° 0 mm 1 mps 760 mmHg 38%
    15:00 +20°C° 0 mm 2 mps 759 mmHg 38%
    16:00 +20°C° 0 mm 2 mps 759 mmHg 39%
    17:00 +19°C° 0 mm 2 mps 758 mmHg 44%
    18:00 +17°C° 0 mm 2 mps 758 mmHg 49%
    19:00 +15°C° 0 mm 2 mps 758 mmHg 54%
    20:00 +15°C° 0 mm 2 mps 757 mmHg 55%
    21:00 +14°C° 0 mm 2 mps 757 mmHg 57%
    22:00 +12°C° 0 mm 3 mps 757 mmHg 58%
    23:00 +12°C° 0 mm 3 mps 756 mmHg 58%

    Day after tomorrow, 21 April, Saturday

    Time Temperature Precipitation Wind Pressure Humidity
    00:00 +12°C° 0 mm 3 mps 756 mmHg 59%
    01:00 +11°C° 0 mm 4 mps 755 mmHg 59%
    02:00 +11°C° 0 mm 4 mps 755 mmHg 59%
    03:00 +11°C° 0 mm 4 mps 754 mmHg 59%
    04:00 +11°C° 0 mm 4 mps 753 mmHg 59%
    05:00 +13°C° 0 mm 4 mps 753 mmHg 62%
    06:00 +14°C° 0 mm 5 mps 753 mmHg 65%
    07:00 +15°C° 0 mm 5 mps 753 mmHg 69%
    08:00 +17°C° 0 mm 6 mps 753 mmHg 65%
    09:00 +20°C° 0 mm 6 mps 753 mmHg 62%
    10:00 +21°C° 0 mm 7 mps 753 mmHg 58%
    11:00 +22°C° 0 mm 7 mps 752 mmHg 54%
    12:00 +22°C° 0 mm 7 mps 752 mmHg 49%
    13:00 +22°C° 0 mm 7 mps 752 mmHg 45%
    14:00 +21°C° 0 mm 7 mps 752 mmHg 44%
    15:00 +21°C° 0 mm 7 mps 752 mmHg 43%
    16:00 +20°C° 0 mm 6 mps 752 mmHg 42%
    17:00 +17°C° 0 mm 5 mps 753 mmHg 47%
    18:00 +15°C° 0 mm 4 mps 753 mmHg 52%
    19:00 +13°C° 0 mm 3 mps 753 mmHg 56%
    20:00 +12°C° 0 mm 3 mps 754 mmHg 59%
    21:00 +11°C° 0 mm 3 mps 754 mmHg 62%
    22:00 +10°C° 0 mm 3 mps 754 mmHg 65%
    23:00 +9°C° 0 mm 2 mps 754 mmHg 67%

    22 April, Sunday

    Time Temperature Precipitation Wind Pressure Humidity
    00:00 +8°C° 0 mm 2 mps 754 mmHg 70%
    01:00 +8°C° 0 mm 2 mps 755 mmHg 72%
    02:00 +7°C° 0 mm 2 mps 755 mmHg 75%
    03:00 +7°C° 0 mm 2 mps 755 mmHg 77%
    04:00 +6°C° 0 mm 2 mps 755 mmHg 80%
    05:00 +7°C° 0 mm 2 mps 755 mmHg 77%
    06:00 +9°C° 0 mm 2 mps 755 mmHg 74%
    07:00 +10°C° 0 mm 2 mps 755 mmHg 71%
    08:00 +11°C° 0 mm 3 mps 755 mmHg 64%
    09:00 +13°C° 0 mm 3 mps 754 mmHg 58%
    10:00 +16°C° 0 mm 3 mps 754 mmHg 51%
    11:00 +16°C° 0 mm 3 mps 754 mmHg 48%
    12:00 +17°C° 0 mm 4 mps 754 mmHg 46%
    13:00 +18°C° 0 mm 4 mps 753 mmHg 43%
    14:00 +18°C° 0 mm 4 mps 753 mmHg 45%
    15:00 +18°C° 0 mm 3 mps 753 mmHg 46%
    16:00 +18°C° 0 mm 3 mps 752 mmHg 47%
    17:00 +17°C° 0 mm 3 mps 752 mmHg 53%
    18:00 +15°C° 0 mm 2 mps 752 mmHg 58%
    19:00 +13°C° 0 mm 1 mps 752 mmHg 64%
    20:00 +13°C° 0 mm 1 mps 752 mmHg 66%
    21:00 +12°C° 0 mm 1 mps 752 mmHg 69%
    22:00 +12°C° 0 mm 1 mps 752 mmHg 71%
    23:00 +11°C° 0 mm 1 mps 752 mmHg 72%

    23 April, Monday

    Time Temperature Precipitation Wind Pressure Humidity
    00:00 +11°C° 0 mm 1 mps 752 mmHg 74%
    01:00 +10°C° 0 mm 1 mps 751 mmHg 75%
    02:00 +10°C° 0 mm 1 mps 751 mmHg 76%
    03:00 +9°C° 0 mm 2 mps 751 mmHg 78%
    04:00 +9°C° 0 mm 2 mps 750 mmHg 79%
    05:00 +10°C° 0 mm 2 mps 750 mmHg 74%
    06:00 +12°C° 0 mm 2 mps 750 mmHg 70%
    07:00 +13°C° 0 mm 3 mps 749 mmHg 65%
    08:00 +16°C° 0 mm 3 mps 749 mmHg 59%
    09:00 +18°C° 0 mm 3 mps 748 mmHg 53%
    10:00 +20°C° 0 mm 4 mps 748 mmHg 47%
    11:00 +21°C° 0 mm 4 mps 747 mmHg 46%
    12:00 +22°C° 0 mm 4 mps 747 mmHg 46%
    13:00 +23°C° 0 mm 4 mps 746 mmHg 45%
    14:00 +23°C° 0.4 mm 4 mps 745 mmHg 51%
    15:00 +22°C° 0.4 mm 4 mps 745 mmHg 57%
    16:00 +22°C° 0.4 mm 4 mps 744 mmHg 64%
    17:00 +20°C° 0.9 mm 4 mps 744 mmHg 71%
    18:00 +18°C° 0.9 mm 4 mps 744 mmHg 78%
    19:00 +17°C° 0.9 mm 4 mps 744 mmHg 86%
    20:00 +15°C° 0 mm 5 mps 745 mmHg 88%
    21:00 +14°C° 0 mm 5 mps 745 mmHg 90%
    22:00 +13°C° 0 mm 5 mps 746 mmHg 92%
    23:00 +12°C° 0 mm 5 mps 746 mmHg 90%

    24 April, Tuesday

    Time Temperature Precipitation Wind Pressure Humidity
    00:00 +10°C° 0 mm 5 mps 747 mmHg 88%
    01:00 +8°C° 0 mm 4 mps 747 mmHg 86%
    02:00 +8°C° 0 mm 4 mps 747 mmHg 86%
    03:00 +8°C° 0 mm 3 mps 748 mmHg 87%
    04:00 +7°C° 0 mm 3 mps 748 mmHg 87%
    05:00 +8°C° 0 mm 3 mps 748 mmHg 84%
    06:00 +9°C° 0 mm 3 mps 748 mmHg 81%
    07:00 +10°C° 0 mm 4 mps 748 mmHg 79%
    08:00 +11°C° 0.2 mm 4 mps 748 mmHg 76%
    09:00 +12°C° 0.2 mm 5 mps 748 mmHg 74%
    10:00 +11°C° 0.2 mm 6 mps 748 mmHg 72%
    11:00 +13°C° 0.3 mm 6 mps 747 mmHg 68%
    12:00 +14°C° 0.3 mm 6 mps 747 mmHg 64%
    13:00 +15°C° 0.3 mm 7 mps 747 mmHg 60%
    14:00 +15°C° 0.4 mm 7 mps 747 mmHg 63%
    15:00 +14°C° 0.4 mm 7 mps 747 mmHg 65%
    16:00 +14°C° 0.4 mm 7 mps 747 mmHg 68%
    17:00 +13°C° 0.3 mm 6 mps 747 mmHg 73%
    18:00 +12°C° 0.3 mm 5 mps 747 mmHg 78%
    19:00 +10°C° 0.3 mm 4 mps 747 mmHg 83%
    20:00 +10°C° 0.1 mm 4 mps 747 mmHg 84%
    21:00 +9°C° 0.1 mm 5 mps 747 mmHg 85%
    22:00 +8°C° 0.1 mm 5 mps 748 mmHg 86%
    23:00 +8°C° 0 mm 4 mps 748 mmHg 88%
    Show more